CAPE
0 0 0 0 0 0 0 0 0 0 0 0 0 0 0 0 0 0 0 0 0 0 0 0 0 0 0 0 0 0 0 0 0 0 0 0 0 0 0 0 0 0 0 0
0 0 0 0 0 0 0 0 0 0 0 0 0 0 0 0 0 0 0 0 0 0 0 0 0 0 0 0 0 0 0 0 0 0 0 0 0 0 0 0 0 0 0 0
0 0 0 0 0 0 0 0 0 0 0 0 0 0 0 0 0 0 0 0 0 0 0 0 0 0 0 0 0 0 0 0 0 0 0 0 0 0 0 0 0 0 0 0
0 0 0 0 0 0 0 0 0 0 0 0 0 0 0 0 0 0 0 0 0 0 0 0 0 0 0 0 0 0 0 0 0 0 0 0 0 0 0 0 0 0 0 0
0 0 0 0 0 0 0 0 0 0 0 0 0 0 0 0 0 0 0 0 0 0 0 0 0 0 0 0 0 0 0 0 0 0 0 0 0 0 0 0 0 0 0 0
0 0 0 0 0 0 0 0 0 0 0 0 0 0 0 0 0 0 0 0 0 0 0 0 0 0 0 0 0 0 0 1 0 0 0 0 0 0 0 0 0 0 0 0
0 0 0 0 0 0 0 0 0 0 0 0 0 0 0 0 0 0 0 0 0 0 0 0 0 0 0 0 0 0 0 1 1 0 0 0 0 0 0 0 0 0 0 0
0 0 0 0 0 0 0 0 0 0 0 0 0 0 0 0 0 0 0 0 0 0 0 0 0 0 0 0 0 0 0 1 1 1 3 2 5 4 0 0 0 0 0 0
0 0 0 0 0 0 0 0 0 0 0 0 0 0 0 0 0 0 0 0 0 0 0 0 0 0 0 0 0 0 0 0 1 2 6 5 3 3 0 0 0 0 0 0
0 0 0 0 0 0 0 0 0 0 0 0 0 0 0 0 0 0 0 0 0 0 0 0 0 0 0 0 0 1 0 0 0 0 0 0 0 0 0 0 0 0 0 0
0 0 0 0 0 0 0 0 0 0 0 1 0 0 0 0 0 0 0 0 0 0 0 0 0 0 0 0 0 0 0 0 0 0 0 0 0 0 0 0 0 0 0 0
0 0 0 0 0 0 0 0 0 9 0 2 0 1 0 0 0 0 0 0 0 0 0 0 0 0 0 0 0 0 0 0 0 0 0 0 0 0 0 0 0 0 0 0
0 0 0 0 0 0 0 0 0 5 14 14 30 1 0 0 0 0 0 0 0 0 0 1 0 0 0 0 0 0 0 0 0 0 0 0 0 0 1 0 0 0 1 1
2 9 5 14 1 0 0 0 0 5 8 0 0 0 0 0 0 0 0 0 0 0 1 6 4 4 3 3 2 2 3 5 8 8 9 9 8 7 6 6 6 6 7 9
2 6 10 12 5 5 12 18 7 3 2 3 0 0 2 6 7 7 1 1 0 5 5 3 3 3 3 3 4 2 2 1 3 3 3 4 4 7 7 12 11 10 8 13
0 3 15 5 0 0 1 1 0 0 0 1 0 1 6 2 0 0 7 1 1 2 2 3 3 3 2 3 4 3 3 3 4 4 3 5 4 3 4 4 4 4 4 5
0 0 23 2 0 0 7 3 1 1 2 3 0 5 1 3 2 3 2 5 8 7 5 3 3 4 3 3 4 3 5 6 3 4 4 4 4 4 3 3 3 3 1 0
0 5 16 18 7 11 2 1 3 0 3 2 2 4 5 7 3 3 6 5 4 4 2 4 4 3 3 3 2 3 3 5 4 3 3 3 3 4 2 0 0 0 0 0
0 13 4 23 4 0 2 0 1 0 0 3 3 1 1 1 7 1 3 4 5 4 2 5 6 3 1 1 2 3 3 2 3 3 2 1 0 0 0 0 0 0 0 0
0 0 1 14 4 4 0 0 0 6 1 3 2 3 4 1 0 3 3 3 3 4 3 1 2 4 4 1 1 1 2 2 2 1 0 0 0 0 0 0 0 0 0 0
0 0 1 1 14 1 2 1 0 0 0 7 4 4 3 2 8 8 6 3 4 4 3 6 3 3 2 4 1 0 0 0 0 0 0 0 0 0 0 0 0 0 0 0
0 0 2 0 1 0 1 0 0 1 1 3 3 3 3 1 1 1 2 3 3 1 0 0 0 0 0 0 0 0 0 0 0 0 0 0 0 0 0 0 0 0 0 0
0 0 1 1 1 1 2 1 1 1 1 3 4 1 1 2 0 0 0 0 0 0 0 0 0 0 0 0 0 0 0 0 0 0 0 0 0 0 0 0 0 0 0 0
2 0 1 0 0 0 0 3 2 3 1 0 2 1 1 1 0 0 0 0 0 0 0 0 0 0 0 0 0 0 0 0 0 0 0 0 0 0 0 0 0 0 0 0
1 0 0 0 0 0 0 0 2 2 0 0 0 0 0 0 0 0 0 0 0 0 0 0 0 0 0 0 0 0 0 0 0 0 0 0 0 0 0 0 0 0 0 0
4 0 2 1 0 0 0 0 0 1 0 1 0 0 0 0 0 0 0 0 0 0 0 0 0 0 0 0 0 0 0 0 0 0 0 0 1 1 0 2 2 3 9 15
CIN
-0 -0 -0 -0 -0 -0 -0 -0 -0 -0 -0 -0 -0 -0 -0 -0 -0 -0 -0 -0 -0 -0 -0 -0 -0 -0 -0 -0 -0 -0 -0 -0 -0 -0 -0 -0 -0 -0 -0 -0 -0 -0 -0 -0
-0 -0 -0 -0 -0 -0 -0 -0 -0 -0 -0 -0 -0 -0 -0 -0 -0 -0 -0 -0 -0 -0 -0 -0 -0 -0 -0 -0 -0 -0 -0 -0 -0 -0 -0 -0 -0 -0 -0 -0 -0 -0 -0 -0
-0 -0 -0 -0 -0 -0 -0 -0 -0 -0 -0 -0 -0 -0 -0 -0 -0 -0 -0 -0 -0 -0 -0 -0 -0 -0 -0 -0 -0 -0 -0 -0 -0 -0 -0 -0 -0 -0 -0 -0 -0 -0 -0 -0
-0 -0 -0 -0 -0 -0 -0 -0 -0 -0 -0 -0 -0 -0 -0 -0 -0 -0 -0 -0 -0 -0 -0 -0 -0 -0 -0 -0 -0 -0 -0 -0 -0 -0 -0 -0 -0 -0 -0 -0 -0 -0 -0 -0
-0 -0 -0 -0 -0 -0 -0 -0 -0 -0 -0 -0 -0 -0 -0 -0 -0 -0 -0 -0 -0 -0 -0 -0 -0 -0 -0 -0 -0 -0 -0 -0 -0 -0 -0 -0 -0 -0 -0 -0 -0 -0 -0 -0
-0 -0 -0 -0 -0 -0 -0 -0 -0 -0 -0 -0 -0 -0 -0 -0 -0 -0 -0 -0 -0 -0 -0 -0 -0 -0 -0 -0 -0 -0 -0 -0 -0 -0 -0 -0 -0 -0 -0 -0 -0 -0 -0 -0
-0 -0 -0 -0 -0 -0 -0 -0 -0 -0 -0 -0 -0 -0 -0 -0 -0 -0 -0 -0 -0 -0 -0 -0 -0 -0 -0 -0 -0 -0 -0 -0 -0 -0 -0 -0 -0 -0 -0 -0 -0 -0 -0 -0
-0 -0 -0 -0 -0 -0 -0 -0 -0 -0 -0 -0 -0 -0 -0 -0 -0 -0 -0 -0 -0 -0 -0 -0 -0 -0 -0 -0 -0 -0 -0 -0 -0 -0 -0 -0 -0 -0 -0 -0 -0 -0 -0 -0
-0 -0 -0 -0 -0 -0 -0 -0 -0 -0 -0 -0 -0 -0 -0 -0 -0 -0 -0 -0 -0 -0 -0 -0 -0 -0 -0 -0 -0 -0 -0 -0 -0 -0 -0 -0 -0 -0 -0 -0 -0 -0 -0 -0
-0 -0 -0 -0 -0 -0 -0 -0 -0 -0 -0 -0 -0 -0 -0 -0 -0 -0 -0 -0 -0 -0 -0 -0 -0 -0 -0 -0 -0 -0 -0 -0 -0 -0 -0 -0 -0 -0 -0 -0 -0 -0 -0 -0
-0 -0 -0 -0 -0 -0 -0 -0 -0 -0 -0 -0 -0 -0 -0 -0 -0 -0 -0 -0 -0 -0 -0 -0 -0 -0 -0 -0 -0 -0 -0 -0 -0 -0 -0 -0 -0 -0 -0 -0 -0 -0 -0 -0
-0 -0 -0 -0 -0 -0 -0 -0 -0 -0 -0 -0 -0 -0 -0 -0 -0 -0 -0 -0 -0 -0 -0 -0 -0 -0 -0 -0 -0 -0 -0 -0 -0 -0 -0 -0 -0 -0 -0 -0 -0 -0 -0 -0
-0 -0 -0 -0 -0 -0 -0 -0 -0 -1 -5 -3 -0 -0 -0 -0 -0 -0 -0 -0 -0 -0 -0 -0 -0 -0 -0 -0 -0 -0 -0 -0 -0 -0 -0 -0 -0 -0 -0 -0 -0 -0 -0 -0
-0 -0 -0 -0 -2 -0 -0 -0 -0 -0 -0 -0 -0 -0 -0 -0 -0 -0 -0 -0 -0 -0 -0 -0 -0 -0 -0 -0 -0 -0 -0 -0 -0 -0 -0 -0 -0 -0 -0 -0 -0 -0 -0 -0
-0 -0 -0 -0 -0 -0 -0 -0 -0 -0 -0 -0 -0 -0 -0 -0 -0 -0 -0 -0 -0 -0 -0 -0 -0 -0 -0 -0 -0 -0 -0 -0 -0 -0 -0 -0 -0 -0 -0 -0 -0 -0 -0 -0
-0 -0 -0 -0 -0 -0 -0 -0 -0 -0 -0 -0 -0 -0 -0 -0 -0 -0 -0 -0 -0 -0 -0 -0 -0 -0 -0 -0 -0 -0 -0 -0 -0 -0 -0 -0 -0 -0 -0 -0 -0 -0 -0 -0
-0 -0 -0 -0 -0 -0 -0 -0 -0 -0 -0 -0 -0 -0 -0 -0 -0 -0 -0 -0 -0 -0 -0 -0 -0 -0 -0 -0 -0 -0 -0 -0 -0 -0 -0 -0 -0 -0 -0 -0 -0 -0 -0 -0
-0 -0 -0 -0 -0 -0 -0 -0 -0 -0 -0 -0 -0 -0 -0 -0 -0 -0 -0 -0 -0 -0 -0 -0 -0 -0 -0 -0 -0 -0 -0 -0 -0 -0 -0 -0 -0 -0 -0 -0 -0 -0 -0 -0
-0 -0 -0 -0 -0 -0 -0 -0 -0 -0 -0 -0 -0 -0 -0 -0 -0 -0 -0 -0 -0 -0 -0 -0 -0 -0 -0 -0 -0 -0 -0 -0 -0 -0 -0 -0 -0 -0 -0 -0 -0 -0 -0 -0
-0 -0 -0 -0 -0 -2 -0 -0 -0 -0 -0 -0 -0 -0 -0 -0 -0 -0 -0 -0 -0 -0 -0 -0 -0 -0 -0 -0 -0 -0 -0 -0 -0 -0 -0 -0 -0 -0 -0 -0 -0 -0 -0 -0
-0 -0 -0 -0 -1 -0 -0 -0 -0 -0 -0 -0 -0 -0 -0 -0 -0 -0 -0 -0 -0 -0 -0 -0 -0 -0 -0 -0 -0 -0 -0 -0 -0 -0 -0 -0 -0 -0 -0 -0 -0 -0 -0 -0
-0 -0 -0 -0 -0 -0 -0 -0 -0 -0 -0 -0 -0 -0 -0 -0 -0 -0 -0 -0 -0 -0 -0 -0 -0 -0 -0 -0 -0 -0 -0 -0 -0 -0 -0 -0 -0 -0 -0 -0 -0 -0 -0 -0
-0 -0 -0 -0 -0 -0 -0 -0 -0 -0 -0 -0 -0 -0 -0 -0 -0 -0 -0 -0 -0 -0 -0 -0 -0 -0 -0 -0 -0 -0 -0 -0 -0 -0 -0 -0 -0 -0 -0 -0 -0 -0 -0 -0
-0 -0 -0 -0 -0 -0 -0 -0 -0 -0 -0 -0 -0 -0 -0 -0 -0 -0 -0 -0 -0 -0 -0 -0 -0 -0 -0 -0 -0 -0 -0 -0 -0 -0 -0 -0 -0 -0 -0 -0 -0 -0 -0 -0
-0 -0 -0 -0 -0 -0 -0 -0 -0 -0 -0 -0 -0 -0 -0 -0 -0 -0 -0 -0 -0 -0 -0 -0 -0 -0 -0 -0 -0 -0 -0 -0 -0 -0 -0 -0 -0 -0 -0 -0 -0 -0 -0 -0
-0 -0 -0 -0 -0 -0 -0 -0 -0 -0 -0 -0 -0 -0 -0 -0 -0 -0 -0 -0 -0 -0 -0 -0 -0 -0 -0 -0 -0 -0 -0 -0 -0 -0 -0 -0 -0 -0 -0 -0 -0 -0 -0 -0
Wind_Speed
10 9 14 15 17 19 15 14 17 16 5 6 18 21 22 19 17 18 16 17 16 15 14 15 16 16 16 15 16 17 16 15 11 9 8 7 7 6 5 4 4 5 4 4
5 16 17 15 7 11 14 17 20 17 4 5 17 21 23 23 22 20 18 15 14 14 13 15 16 16 17 17 17 16 16 16 12 8 7 6 7 5 5 5 5 4 5 4
18 8 4 7 12 14 16 17 18 17 2 14 16 19 22 19 8 7 7 6 7 9 11 14 17 17 16 17 17 17 16 15 14 12 7 6 6 5 5 6 5 5 5 4
15 19 11 10 14 13 17 12 14 14 8 11 1 15 16 18 18 12 11 11 10 8 8 13 16 17 17 16 14 15 16 15 13 13 10 13 9 8 6 7 6 6 6 6
6 6 9 14 15 11 5 2 3 7 12 15 13 12 6 2 11 14 8 5 7 5 8 12 14 16 16 15 14 14 15 15 14 13 12 10 9 7 7 7 9 8 6 6
19 2 5 12 1 6 7 3 4 5 6 11 17 18 10 11 8 11 8 8 6 4 5 8 12 14 14 13 13 12 14 14 14 13 13 12 10 8 8 8 8 7 6 6
13 19 7 7 9 5 10 7 5 8 7 9 3 9 16 1 2 4 9 9 6 3 4 7 11 13 14 15 14 13 15 14 15 14 11 10 9 9 10 8 7 8 6 6
9 9 14 13 17 7 15 16 8 10 12 13 7 9 6 12 2 2 3 2 4 4 4 3 7 10 12 14 15 15 16 15 15 14 12 9 9 6 7 9 6 6 6 5
10 17 4 10 3 8 7 11 10 18 21 17 14 21 19 6 4 5 7 7 7 6 5 4 3 7 10 12 14 14 14 13 13 13 11 11 11 10 8 10 9 7 8 7
9 15 8 7 3 6 7 4 6 6 9 17 15 17 13 7 13 12 10 9 8 6 5 4 4 4 6 8 10 11 12 11 11 11 10 9 8 8 7 8 9 9 8 9
8 10 14 6 10 13 8 8 9 6 14 15 18 13 10 5 7 1 7 9 9 9 7 5 4 4 4 5 6 8 9 10 10 9 9 9 8 7 7 7 7 7 8 9
11 9 18 22 19 16 19 18 21 15 17 15 18 20 11 16 1 4 6 5 8 9 7 7 6 5 5 5 5 6 6 8 8 7 8 8 8 8 9 8 8 8 8 7
10 7 13 15 17 15 10 17 16 20 17 20 19 22 10 19 27 28 21 1 7 10 9 7 5 5 6 8 8 6 7 6 6 7 7 6 7 8 8 8 7 7 6 5
8 6 14 16 15 17 3 11 15 16 10 20 22 26 16 26 27 27 27 21 3 8 7 7 8 9 9 9 8 7 7 5 5 5 5 5 5 5 6 7 6 7 6 5
5 5 9 11 17 19 21 22 21 20 14 13 15 11 17 20 24 25 25 21 13 11 9 10 10 9 9 8 8 8 9 9 7 7 7 7 6 5 5 6 6 6 6 5
8 11 13 19 21 19 21 19 10 13 15 8 12 11 14 13 16 21 21 20 20 18 16 14 13 12 11 10 8 8 9 8 8 8 8 7 7 6 5 6 5 6 5 5
18 8 9 15 17 17 12 18 14 14 16 10 12 13 18 14 15 16 17 17 17 15 12 11 10 8 9 9 8 8 8 6 7 7 7 7 6 6 6 5 4 4 2 2
14 15 11 13 17 15 9 10 11 17 15 15 13 17 17 16 7 15 16 15 15 14 14 13 10 10 11 10 10 8 8 8 7 7 7 7 7 6 5 5 3 1 2 3
4 2 6 4 7 9 3 10 7 5 7 14 14 16 17 24 7 13 13 13 12 11 10 9 8 7 8 8 8 9 8 7 6 6 6 6 5 5 6 6 6 4 4 5
10 9 5 5 5 3 4 15 13 7 4 15 14 15 16 16 9 8 13 12 11 10 10 9 10 9 7 7 8 7 6 6 5 4 4 6 5 5 5 5 6 6 6 5
7 6 6 6 3 6 13 16 4 3 8 16 14 13 14 11 10 12 14 12 10 10 11 11 9 9 8 5 6 9 8 6 5 4 5 6 7 6 6 7 6 6 6 6
5 6 5 6 4 1 18 5 7 7 10 12 12 12 13 13 13 13 13 14 13 14 13 11 9 9 10 8 7 9 9 7 5 7 7 7 7 6 6 8 8 7 6 7
2 6 5 5 4 8 6 7 4 5 9 11 13 12 13 13 14 15 14 13 12 13 11 11 9 10 10 8 8 10 9 8 8 9 10 9 8 8 8 9 9 7 7 6
3 9 3 4 3 11 4 3 8 6 9 12 12 12 13 14 14 14 13 13 13 12 12 11 11 11 11 10 9 9 10 9 9 9 10 9 9 9 9 8 7 7 6 6
4 8 7 3 6 9 6 12 13 14 8 12 12 12 14 15 15 15 14 14 13 13 13 12 12 13 13 12 12 11 11 10 10 10 9 9 9 8 8 8 7 7 7 8
6 4 5 3 8 5 13 13 16 12 12 13 15 17 15 15 15 15 13 13 13 13 14 13 14 14 14 14 13 13 11 11 10 10 9 8 7 7 7 7 7 14 18 19
Wind_Direction
195 228 224 232 228 259 298 279 278 277 152 231 254 262 269 268 265 260 248 252 248 232 218 191 197 183 179 181 176 177 175 174 169 172 175 173 174 165 155 132 130 129 114 107
197 239 248 263 281 267 253 264 268 278 153 233 270 272 278 272 262 257 256 245 240 246 220 187 188 182 182 181 178 178 179 174 177 176 178 176 162 169 148 138 136 129 125 117
240 248 48 225 237 241 243 251 264 274 253 238 278 275 265 256 249 261 265 249 229 212 206 195 188 188 182 183 180 179 178 175 178 178 163 158 130 125 154 163 152 151 138 126
254 259 231 225 246 240 262 271 253 268 270 274 135 290 282 278 264 209 210 212 213 198 211 196 194 190 187 184 181 178 177 175 180 178 169 172 176 173 181 172 158 158 154 144
223 204 217 231 242 227 253 17 251 253 261 281 254 263 282 353 251 248 225 193 178 188 195 187 194 192 190 182 180 177 176 178 178 181 184 183 191 180 157 163 160 163 161 158
260 94 251 237 110 238 116 168 206 237 260 255 246 238 275 270 210 251 153 165 163 165 179 186 184 186 185 175 177 177 177 181 180 185 193 192 192 167 166 167 168 167 167 164
238 231 220 200 227 188 207 200 255 226 204 253 160 256 244 321 231 289 195 177 164 153 158 174 180 185 184 182 180 182 182 184 183 186 191 195 193 175 177 172 172 169 170 174
267 258 190 184 224 229 204 211 214 247 243 271 134 233 244 233 357 183 205 239 156 164 142 174 188 191 190 183 189 187 187 185 185 185 187 194 196 179 182 180 175 172 169 169
268 257 116 183 233 210 164 216 263 273 276 275 259 263 266 147 227 232 222 210 205 174 156 157 203 211 191 193 193 192 188 184 187 185 179 187 194 195 189 179 180 181 166 162
280 285 254 130 190 225 248 2 206 214 259 249 260 261 264 219 222 215 216 217 202 169 158 160 188 193 190 191 186 188 188 178 181 179 178 185 186 187 181 174 180 167 162 159
275 255 254 152 200 226 198 233 223 297 251 264 269 263 277 20 17 247 228 215 196 179 174 160 167 155 159 162 171 181 177 173 171 172 166 163 160 161 159 166 158 160 157 155
263 281 272 260 249 236 253 240 235 237 254 250 257 260 279 290 18 267 240 164 164 172 158 160 149 141 142 145 146 158 160 164 163 154 154 141 142 148 144 144 147 147 142 150
352 256 262 270 247 213 239 242 246 262 278 263 271 264 291 31 4 355 340 221 178 147 139 124 106 91 69 60 52 56 68 71 73 83 104 108 111 107 102 92 77 75 100 107
316 251 257 261 280 325 224 262 281 284 263 261 251 270 356 360 353 350 335 310 147 104 106 88 72 56 51 48 49 48 56 71 89 100 106 114 112 116 125 131 136 135 141 147
40 302 329 314 308 305 301 295 302 284 270 259 320 13 8 5 355 356 353 5 51 64 62 62 65 61 53 48 38 32 34 29 43 56 59 60 68 79 106 118 125 132 141 148
196 267 268 276 274 273 271 24 6 27 2 350 6 88 11 15 10 14 14 22 34 39 42 41 43 52 47 45 45 41 33 30 42 51 51 44 44 51 55 68 87 103 110 118
297 288 301 276 297 298 269 26 75 73 38 4 14 345 344 352 27 23 20 21 21 19 28 37 35 34 42 32 29 32 30 30 44 56 59 48 33 31 14 34 60 69 96 160
277 285 265 279 292 253 87 43 63 93 49 27 2 350 343 338 56 37 24 18 21 12 14 18 24 15 24 20 13 18 26 28 31 37 42 36 21 9 349 330 321 285 259 249
173 304 311 303 335 112 209 23 354 350 64 17 359 351 344 339 163 50 24 14 11 9 4 4 6 16 12 21 7 1 10 11 23 35 13 8 356 328 319 310 310 308 298 280
358 1 246 317 272 301 48 323 308 220 171 4 0 355 352 348 4 357 1 360 357 356 355 3 353 354 6 6 355 351 351 342 339 356 338 300 303 289 293 295 298 293 283 281
356 351 10 342 325 104 355 324 320 237 349 343 351 348 344 347 335 328 335 342 344 342 344 350 341 335 333 332 334 322 311 300 295 295 305 304 296 292 293 292 273 273 272 272
33 326 22 315 315 220 7 26 46 334 324 335 338 341 327 326 325 327 329 332 335 327 327 329 322 323 319 313 306 309 306 316 313 303 296 293 289 284 283 282 274 268 266 265
36 356 346 1 39 347 41 75 17 339 330 335 324 327 319 317 318 318 319 320 319 317 318 317 319 316 308 305 303 302 304 313 303 298 296 289 283 276 273 269 271 269 259 254
59 15 7 289 62 342 149 110 4 336 335 321 314 315 313 313 314 314 316 315 313 317 316 316 315 308 310 310 306 296 298 300 293 286 284 286 281 277 270 266 260 261 259 260
353 309 329 277 16 338 196 343 328 329 326 319 312 313 308 314 310 311 311 312 313 314 315 310 312 309 307 310 305 302 299 297 289 288 283 280 278 276 274 268 266 264 258 253
357 2 341 323 343 296 291 313 310 307 322 315 317 314 316 309 307 310 308 309 308 305 308 313 305 303 304 304 300 298 296 293 288 284 280 271 269 266 269 270 268 267 266 260